Regional Weather Roundup
Issued by NWS

Home | Current Version | Previous Version | Text Only | Print | Product List | Glossary Off
Versions: 1 2 3 4 5 6 7 8 9 10 11 12 13 14 15 16 17 18 19 20 21 22 23 24 25 26 27 28 29 30 31 32 33 34 35 36 37 38 39 40 41 42 43 44 45 46 47 48 49 50

000
ASUS43 KIND 310409
RWRIN

WEATHER ROUNDUP FOR INDIANA
NATIONAL WEATHER SERVICE INDIANAPOLIS IN
1200 AM EDT SUN AUG 31 2014

NOTE: "FAIR" INDICATES FEW OR NO CLOUDS BELOW 12,000 FEET WITH NO
SIGNIFICANT WEATHER AND/OR OBSTRUCTIONS TO VISIBILITY.

* - STATION DOES NOT REPORT WEATHER SUCH AS PRECIPITATION OR FOG.

+ - STATION NOT QUALITY CONTROLLED BY THE NATIONAL WEATHER SERVICE.
    USE DATA WITH CAUTION...ESPECIALLY DEWPOINT AND RELATIVE
    HUMIDITY OBSERVATIONS.

INZ001>003-010>013-019-020-310500-
NORTHWEST INDIANA

CITY           SKY/WX    TMP DP  RH WIND       PRES   REMARKS
GARY /AIRPORT/ CLOUDY    73  70  88 S3        29.93R
KNOX *+        CLOUDY    72  68  89 S6        29.94R
LA PORTE +     CLOUDY    71  70  96 SW8       29.95R
MICHIGAN CITY+ CLOUDY    70  68  94 S6        29.94R
MONTICELLO +   CLOUDY    73  71  91 S7        29.95S
RENSSELAER +   LGT RAIN  68  68 100 S6        29.95F
VALPARAISO     CLOUDY    71  68  90 SW8       29.95R

$$

LMZ046-743>745-310500-
SOUTHERN LAKE MICHIGAN

STATION/POSITION TIME  TEMP WIND        PRES
                       AIR  DIR/SP/G
                 (UTC) (F)  (DEG/KT/KT) (MB)
MICHIGAN CITY    0400   72  160/ 13/ 17   N/A

$$

INZ004-005-014>016-021>024-310500-
NORTH CENTRAL INDIANA

CITY           SKY/WX    TMP DP  RH WIND       PRES   REMARKS
GOSHEN         CLOUDY    75  70  84 SW14G20   29.94S
LOGANSPORT +   CLOUDY    72  68  88 SW7       29.97S
PERU/GRISSOM   CLOUDY    73  73 100 SW15      29.96S
ROCHESTER +    CLOUDY    75  70  83 SW8G18    29.96S
SOUTH BEND     CLOUDY    73  70  90 SW8       29.94R
WARSAW +       CLOUDY    73  70  88 SW5       29.96S

$$

INZ006>009-017-018-025>027-310500-
NORTHEAST INDIANA

CITY           SKY/WX    TMP DP  RH WIND       PRES   REMARKS
ANGOLA *+      MOCLDY    75  66  73 SW12      29.95F
AUBURN +       CLOUDY    73  68  83 SW6       29.98R
FORT WAYNE     CLOUDY    74  70  87 SW10      29.98R
HUNTINGTON +   CLOUDY    73  70  90 SW5       29.98R

$$

INZ028-029-035-036-043>045-051>053-310500-
WEST CENTRAL INDIANA

CITY           SKY/WX    TMP DP  RH WIND       PRES   REMARKS
GREENCASTLE +  CLOUDY    70  68  94 SW3       30.03R
LAFAYETTE      CLOUDY    73  70  90 W8        29.97R
TERRE HAUTE    CLOUDY    72  68  87 S9        30.01R

$$

INZ030>032-037>040-046>048-054>057-064-065-310500-
CENTRAL INDIANA

CITY           SKY/WX    TMP DP  RH WIND       PRES   REMARKS
CP ATTERBURY + CLOUDY    70  66  88 SW5       30.04R
FRANKFORT +    CLOUDY   N/A N/A N/A S7        30.00S
INDIANAPOLIS   CLOUDY    72  68  87 S9        30.00S
-EAGLE CREEK   CLOUDY    72  67  84 S7        30.00S
KOKOMO *+      CLOUDY    73  68  83 SW14      29.98F
MARION +       CLOUDY    72  68  88 SW9       30.00R
MT COMFORT *+  CLOUDY    72  72 100 S6        30.02S
SHELBYVILLE    CLOUDY    72  68  87 S9        30.02R
ZIONSVILLE +   CLOUDY    73  67  80 SW12      30.01R

$$

INZ033-034-041-042-049-050-058-059-310500-
EAST CENTRAL INDIANA

CITY           SKY/WX    TMP DP  RH WIND       PRES   REMARKS
MUNCIE         CLOUDY    73  67  81 S9G18     30.00S

$$

INZ060-061-067>069-081>083-085>088-310500-
SOUTHWEST INDIANA

CITY           SKY/WX    TMP DP  RH WIND       PRES   REMARKS
EVANSVILLE     CLOUDY    72  69  90 S6        30.02F
WASHINGTON +   CLOUDY    70  70 100 S5        30.02R

$$

INZ062-063-066-070>080-084-089>092-310500-
SOUTH CENTRAL AND SOUTHEAST INDIANA

CITY           SKY/WX    TMP DP  RH WIND       PRES   REMARKS
BLOOMINGTON    CLOUDY    70  67  90 S6        30.04R
SEYMOUR +      CLOUDY    72  63  73 S7        30.04

$$



USA.gov is the U.S. government's official web portal to all federal, state and local government web resources and services.